Regional Weather Roundup
Issued by NWS

Current Version | Previous Version | Text Only | Print | Product List | Glossary Off
Versions: 1 2 3 4 5 6 7 8 9 10 11 12 13 14 15 16 17 18 19 20 21 22 23 24 25 26 27 28 29 30 31 32 33 34 35 36 37 38 39 40 41 42 43 44 45 46 47 48 49 50

000
ASUS42 KFFC 171310
RWRGA
WEATHER ROUNDUP FOR GEORGIA
NATIONAL WEATHER SERVICE PEACHTREE CITY GA
900 AM EDT TUE OCT 17 2017

NOTE: "FAIR" INDICATES FEW OR NO CLOUDS BELOW 12,000 FEET WITH NO
SIGNIFICANT WEATHER AND/OR OBSTRUCTIONS TO VISIBILITY.

* = USE WITH CAUTION. THE STATIONS MARKED WITH AN ASTERISK MAY NOT
REPORT WEATHER SUCH AS PRECIPITATION, FOG, OR THUNDER AND ARE NOT
QUALITY CONTROLLED BY NWS.

THE REMARK "TC" DENOTES TEMPERATURE READING IN DEGREES CELSIUS.

GAZ001>058-171400-
NORTH GEORGIA

CITY           SKY/WX    TMP DP  RH WIND       PRES   REMARKS
ATLANTA        MOSUNNY   54  40  59 E15       30.32R
ATHENS         SUNNY     51  43  74 NE7       30.34R
CHAMBLEE       SUNNY     52  39  61 VRB3      30.33R
PEACHTREE CITY SUNNY     52  44  74 E5        30.33R
ROME           SUNNY     48  46  93 NE5       30.34R
WEST ATLANTA   SUNNY     51  45  79 NE6       30.33R
GAINESVILLE    SUNNY     51  38  60 VRB7      30.35R HAZE
CARTERSVILLE   SUNNY     46  45  96 CALM      30.35R


CITY           SKY/WX    TMP DP  RH WIND       PRES   REMARKS
DALTON*        SUNNY     43  43 100 CALM      30.36S
LAWRENCEVILLE* SUNNY     52  39  61 NE7       30.34R
MARIETTA       MOSUNNY   50  42  74 NE5       30.33R
KENNESAW*      SUNNY     49  42  77 VRB6      30.34R
CANTON*        SUNNY     50  43  76 CALM      30.35R
$$

GAZ059>098-102>109-171400-
CENTRAL GEORGIA

CITY           SKY/WX    TMP DP  RH WIND       PRES   REMARKS
AUGUSTA-BUSH   MOSUNNY   55  44  66 NE9       30.31R
AUGUSTA-DANIEL SUNNY     52  43  71 N8        30.31R
COLUMBUS       MOSUNNY   57  41  55 E14G22    30.27R
MACON          SUNNY     54  44  69 NE10      30.29R
ROBINS AFB     SUNNY     53  45  72 N6        30.28R


CITY           SKY/WX    TMP DP  RH WIND       PRES   REMARKS
LAGRANGE*      MOSUNNY   53  44  72 CALM      30.31R
SYLVANIA*      MOSUNNY   52  47  83 NE8       30.28R
MILLEDGEVILLE* SUNNY     55  45  67 NE8       30.32R
$$

GAZ099>101-110>166-171400-
SOUTH GEORGIA

CITY           SKY/WX    TMP DP  RH WIND       PRES   REMARKS
SAVANNAH       CLOUDY    56  49  77 N12       30.25R
VALDOSTA       CLOUDY    60  50  69 NE16G23   30.19R
ALMA           CLOUDY    57  47  69 VRB3      30.23R
ST SIMONS      CLOUDY    68  60  75 NE18G28   30.17R
FT STEWART     CLOUDY    56  48  73 N8G20     30.22R
ALBANY         CLOUDY    58  45  62 NE13      30.25R
HUNTER AFB     CLOUDY    58  49  73 NE9       30.21R
MOODY AFB      CLOUDY    59  48  67 NE13      30.19R
BRUNSWICK      CLOUDY    64  54  68 NE13      30.19R


CITY           SKY/WX    TMP DP  RH WIND       PRES   REMARKS
BAINBRIDGE*    PTSUNNY   61  50  67 NE13G18   30.20R
MOULTRIE*      CLOUDY    59  46  63 NE13      30.21R
VIDALIA*       MOSUNNY   54  46  76 NE7       30.27R
WAYCROSS*      CLOUDY    59  47  64 NE10G18   30.22R
DOUGLAS*       CLOUDY    55  45  67 NE10G18   30.24R
$$




USA.gov is the U.S. government's official web portal to all federal, state and local government web resources and services.